TimeHST,TemperatureF,Dew PointF,Humidity,Sea Level PressureIn,VisibilityMPH,Wind Direction,Wind SpeedMPH,Gust SpeedMPH,PrecipitationIn,Events,Conditions,WindDirDegrees,DateUTC
12:56 AM,71.1,50.0,47,30.09,10.0,SE,6.9,-,N/A,,Partly Cloudy,130,2012-11-17 10:56:00
1:56 AM,71.1,50.0,47,30.08,10.0,ENE,4.6,-,N/A,,Mostly Cloudy,70,2012-11-17 11:56:00
2:56 AM,70.0,48.9,47,30.06,10.0,East,3.5,-,N/A,,Clear,100,2012-11-17 12:56:00
3:56 AM,70.0,53.1,55,30.06,10.0,ESE,3.5,-,N/A,,Partly Cloudy,120,2012-11-17 13:56:00
4:56 AM,70.0,52.0,53,30.05,10.0,East,3.5,-,N/A,,Clear,80,2012-11-17 14:56:00
5:56 AM,71.1,60.1,68,30.05,10.0,ESE,3.5,-,N/A,,Clear,120,2012-11-17 15:56:00
6:56 AM,68.0,-9999,N/A,30.07,10.0,East,5.8,-,N/A,,Clear,80,2012-11-17 16:56:00
7:56 AM,70.0,64.9,84,30.08,10.0,East,3.5,-,N/A,,Clear,90,2012-11-17 17:56:00
8:56 AM,77.0,51.1,40,30.09,10.0,Calm,Calm,-,N/A,,Clear,0,2012-11-17 18:56:00
9:56 AM,78.1,55.9,46,30.10,10.0,SW,5.8,-,N/A,,Clear,230,2012-11-17 19:56:00
10:56 AM,80.1,59.0,48,30.09,10.0,WSW,8.1,-,N/A,,Scattered Clouds,250,2012-11-17 20:56:00
11:56 AM,79.0,63.0,58,30.08,10.0,West,6.9,-,N/A,,Overcast,280,2012-11-17 21:56:00
12:56 PM,77.0,60.1,56,30.06,10.0,Calm,Calm,-,N/A,,Overcast,0,2012-11-17 22:56:00
1:56 PM,78.1,61.0,56,30.04,10.0,WSW,8.1,-,N/A,,Clear,250,2012-11-17 23:56:00
2:56 PM,79.0,60.1,52,30.03,10.0,NNW,6.9,-,N/A,,Mostly Cloudy,340,2012-11-18 00:56:00
3:56 PM,78.1,57.9,50,30.04,10.0,NW,3.5,-,N/A,,Mostly Cloudy,320,2012-11-18 01:56:00
4:56 PM,78.1,57.0,48,30.05,10.0,SSE,5.8,-,N/A,,Overcast,150,2012-11-18 02:56:00
5:56 PM,77.0,57.9,52,30.05,10.0,Calm,Calm,-,N/A,,Mostly Cloudy,0,2012-11-18 03:56:00
6:56 PM,77.0,57.0,50,30.07,10.0,ESE,3.5,-,N/A,,Overcast,110,2012-11-18 04:56:00
7:56 PM,75.0,57.0,53,30.09,10.0,Calm,Calm,-,N/A,,Overcast,0,2012-11-18 05:56:00
8:56 PM,73.9,61.0,64,30.11,10.0,Calm,Calm,-,0.00,,Mostly Cloudy,0,2012-11-18 06:56:00
9:56 PM,73.0,69.1,87,30.12,10.0,Calm,Calm,-,N/A,,Scattered Clouds,0,2012-11-18 07:56:00
10:56 PM,73.0,62.1,68,30.13,10.0,NE,4.6,-,N/A,,Mostly Cloudy,40,2012-11-18 08:56:00
11:56 PM,73.0,64.9,76,30.11,10.0,ENE,3.5,-,N/A,,Mostly Cloudy,70,2012-11-18 09:56:00